Location: Narrabri
(30.3170°S, 149.7830°E)
Time: 17:05:05
(UTC+11:00)

ISS - Visible Passes

Search period start: 22 January 2019 00:00
Search period end: 01 February 2019 00:00
Orbit: 404 x 410 km, 51.6° (Epoch: 22 January)

Date Brightness Start Highest point End Pass type
(mag) Time Alt. Az. Time Alt. Az. Time Alt. Az.
26 Jan -2.2 05:11:18 16° N 05:13:23 30° NE 05:16:21 10° ESE visible
27 Jan -1.2 04:22:19 14° ENE 04:22:19 14° ENE 04:24:01 10° E visible
27 Jan -2.8 05:55:23 10° WNW 05:58:27 35° SW 06:01:34 10° SSE visible
28 Jan -3.9 05:05:58 40° NW 05:07:03 78° SW 05:10:24 10° SE visible
29 Jan -2.0 04:16:49 31° E 04:16:49 31° E 04:18:54 10° ESE visible
29 Jan -1.5 05:50:27 10° WSW 05:52:25 15° SW 05:54:23 10° S visible
30 Jan -2.3 05:00:18 24° WSW 05:00:51 26° SW 05:03:43 10° SSE visible
31 Jan -1.6 04:10:59 26° SSE 04:10:59 26° SSE 04:12:39 10° SE visible
